weather.gov     
National Weather Service

Terminal Aerodrome Forecast
NWS Homepage
This page is being discontinued on March 12, 2014.
The same data is available at this site. Please update your bookmarks.
Thank you, and we apologize for the inconvenience.
Please send an email to SR-SRH.Webmaster@noaa.gov with any concerns.


Current Version
Previous Version:    01  02  03  04  05  06  07  08  09  10  11  12  13  14  15  16  17  18  19  20  21  22  23  24  25  26  27  28  29  30  
   31  32  33  34  35  36  37  38  39  40  41  
[Printable]
119
FTUS41 KPHI 021100
TAFILG
TAF
KILG 021123Z 0212/0312 23005KT P6SM FEW060 SCT150
     FM021400 26008KT P6SM SCT060
     FM021800 22010G18KT P6SM SCT050 BKN150
     FM022200 24008KT P6SM VCSH BKN050
     FM030400 29005KT P6SM FEW050 SCT250
     FM030700 32005KT P6SM SCT150=


U.S. Dept. of Commerce
NOAA National Weather Service
1325 East West Highway
Silver Spring, MD 20910
E-mail: w-nws.webmaster@noaa.gov
Page last modified: May 16, 2007
NATIONAL WEATHER SERVICE: for Safety, for Work, for Fun - FOR LIFE